Flag for Estonia Weather past 2 weeks in Tartu, Estonia

Now
61 °F

Sprinkles. Partly sunny.


Feels Like: 61 °F
Forecast: 51 / 67 °F
Wind: 21 mph from West

Location: Tartu/Ulenurme

Current Time: Aug 22, 2014 at 5:16:54 PM

Latest Report: Aug 22, 2014 at 3:50 PM


Visibility: N/A

Pressure: 29.86 "Hg

Humidity: 59%

Dew point: 46 °F

Location of TartuLocation

Historic Weather in Tartu — Graph

°F

Tartu temperature yesterday

Maximum temperature yesterday: 66 °F (at 2:50 PM)
Minimum temperature yesterday: 52 °F (at 2:50 AM)
Average temperature yesterday: 58 °F

Past Weeks' High & Low Weather Summary

 TemperatureHumidityPressure
High82 °F (Aug 7, 3:50 PM)100% (Aug 16, 6:50 AM)29.98 "Hg (Aug 16, 6:50 AM)
Low52 °F (Aug 14, 2:50 AM)42% (Aug 7, 3:50 PM)29.50 "Hg (Aug 14, 8:50 PM)
Average63 °F78%29.76 "Hg
* Reported Aug 7 3:50 PM — Aug 22 3:50 PM, Tartu, Weather by CustomWeather, © 2014

Note: Actual official high and low records may vary slightly from our data, if they occured in-between our weather recording intervals... More about our weather records

Advertising

Tartu weather history for previous 24 hours

 ConditionsComfort  
Time TempWeatherWind HumidityBarometerVisibility
3:50 PM
Aug 22
61 °FSprinkles. Partly sunny.21 mph59%29.86 "HgN/A
2:50 PM63 °FScattered clouds.16 mph56%29.83 "HgN/A
1:50 PM63 °FPassing clouds.10 mph73%29.83 "HgN/A
12:50 PM57 °FScattered showers. Scattered clouds.9 mph88%29.83 "HgN/A
11:50 AM55 °FThunderstorms. Broken clouds.15 mph82%29.83 "Hg5 mi
10:50 AM61 °FScattered clouds.14 mph72%29.80 "HgN/A
9:50 AM57 °FPartly sunny.13 mph82%29.80 "HgN/A
8:50 AM55 °FPartly sunny.13 mph88%29.80 "HgN/A
7:50 AM52 °FPartly sunny.9 mph94%29.80 "HgN/A
6:50 AM52 °FPartly sunny.8 mph94%29.80 "HgN/A
5:50 AM52 °FPassing clouds.9 mph94%29.80 "HgN/A
4:50 AM54 °FPassing clouds.6 mph88%29.80 "HgN/A
3:50 AM54 °FPassing clouds.5 mph88%29.80 "HgN/A
2:50 AM54 °FOvercast.7 mph88%29.83 "HgN/A
1:50 AM54 °FDrizzle. Overcast.7 mph88%29.83 "HgN/A
12:50 AM54 °FLight rain. Passing clouds.5 mph88%29.83 "HgN/A
11:50 PM
Aug 21
55 °FLight rain. Passing clouds.5 mph82%29.83 "HgN/A
10:50 PM55 °FLight rain. Mostly cloudy.9 mph82%29.83 "HgN/A
9:50 PM55 °FPassing clouds.7 mph82%29.83 "HgN/A
8:50 PM57 °FScattered clouds.8 mph77%29.83 "HgN/A
7:50 PM57 °FPassing clouds.7 mph82%29.83 "HgN/A
6:50 PM57 °FPassing clouds.6 mph82%29.86 "HgN/A
5:50 PM63 °FScattered showers. Scattered clouds.14 mph59%29.83 "HgN/A
Weather by CustomWeather, © 2014

See weather overviewHow to use our weather pages